date,time,SUV Intensity [MED/Hr],UV Index,Daily total [MED],Since Last [MED]
30/08/2022,00:13:17,0.000,0.0,0.0,0.0
30/08/2022,00:14:15,-0.001,0.0,0.0,0.0
30/08/2022,00:15:15,0.001,0.0,0.0,0.0
30/08/2022,00:16:16,0.000,0.0,0.0,0.0
30/08/2022,00:17:16,0.000,0.0,0.0,0.0
30/08/2022,00:18:16,0.001,0.0,0.0,0.0
30/08/2022,00:19:16,0.000,0.0,0.0,0.0
30/08/2022,00:20:16,-0.001,0.0,0.0,0.0
30/08/2022,00:21:16,-0.001,0.0,0.0,0.0
30/08/2022,00:22:16,0.000,0.0,0.0,0.0
30/08/2022,00:23:15,0.001,0.0,0.0,0.0
30/08/2022,00:24:17,-0.001,0.0,0.0,0.0
30/08/2022,00:25:15,0.001,0.0,0.0,0.0
30/08/2022,00:26:16,-0.000,0.0,0.0,0.0
30/08/2022,00:27:16,0.000,0.0,0.0,0.0
30/08/2022,00:28:16,0.000,0.0,0.0,0.0
30/08/2022,00:29:24,0.000,0.0,0.0,0.0
30/08/2022,00:30:16,0.000,0.0,0.0,0.0
30/08/2022,00:31:17,0.000,0.0,0.0,0.0
30/08/2022,00:32:16,0.000,0.0,0.0,0.0
30/08/2022,00:33:15,-0.001,0.0,0.0,0.0
30/08/2022,00:34:16,0.000,0.0,0.0,0.0
30/08/2022,00:35:16,0.000,0.0,0.0,0.0
30/08/2022,00:36:16,0.000,0.0,0.0,0.0
30/08/2022,00:37:15,0.002,0.0,0.0,0.0
30/08/2022,00:38:16,0.001,0.0,0.0,0.0
30/08/2022,00:39:15,-0.000,0.0,0.0,0.0
30/08/2022,00:40:16,0.001,0.0,0.0,0.0
30/08/2022,00:41:16,0.001,0.0,0.0,0.0
30/08/2022,00:42:16,0.001,0.0,0.0,0.0
30/08/2022,00:43:33,0.000,0.0,0.0,0.0
30/08/2022,00:45:17,0.000,0.0,0.0,0.0
30/08/2022,00:46:16,0.000,0.0,0.0,0.0
30/08/2022,00:47:24,0.000,0.0,0.0,0.0
30/08/2022,00:48:14,-0.000,0.0,0.0,0.0
30/08/2022,00:49:15,0.000,0.0,0.0,0.0
30/08/2022,00:50:24,0.000,0.0,0.0,0.0
30/08/2022,00:51:16,-0.001,0.0,0.0,0.0
30/08/2022,00:52:16,0.000,0.0,0.0,0.0
30/08/2022,00:53:25,0.001,0.0,0.0,0.0
30/08/2022,00:54:15,0.001,0.0,0.0,0.0
30/08/2022,00:55:15,0.000,0.0,0.0,0.0
30/08/2022,00:56:16,0.000,0.0,0.0,0.0
30/08/2022,00:57:16,0.000,0.0,0.0,0.0
30/08/2022,00:58:16,0.001,0.0,0.0,0.0
30/08/2022,00:59:16,0.000,0.0,0.0,0.0
30/08/2022,01:00:15,-0.000,0.0,0.0,0.0
30/08/2022,01:01:16,0.001,0.0,0.0,0.0
30/08/2022,01:02:16,0.001,0.0,0.0,0.0
30/08/2022,01:03:16,0.000,0.0,0.0,0.0
30/08/2022,01:04:16,0.000,0.0,0.0,0.0
30/08/2022,01:05:16,0.000,0.0,0.0,0.0
30/08/2022,01:06:15,0.000,0.0,0.0,0.0
30/08/2022,01:07:15,0.001,0.0,0.0,0.0
30/08/2022,01:08:24,0.001,0.0,0.0,0.0
30/08/2022,01:09:16,-0.000,0.0,0.0,0.0
30/08/2022,01:10:16,0.000,0.0,0.0,0.0
30/08/2022,01:11:31,-0.000,0.0,0.0,0.0
30/08/2022,01:13:16,0.000,0.0,0.0,0.0
30/08/2022,01:14:16,0.001,0.0,0.0,0.0
30/08/2022,01:15:16,-0.000,0.0,0.0,0.0
30/08/2022,01:16:16,0.001,0.0,0.0,0.0
30/08/2022,01:17:17,0.001,0.0,0.0,0.0
30/08/2022,01:18:16,-0.000,0.0,0.0,0.0
30/08/2022,01:19:16,0.000,0.0,0.0,0.0
30/08/2022,01:20:16,0.001,0.0,0.0,0.0
30/08/2022,01:21:16,0.001,0.0,0.0,0.0
30/08/2022,01:22:16,0.001,0.0,0.0,0.0
30/08/2022,01:23:16,0.001,0.0,0.0,0.0
30/08/2022,01:24:16,0.001,0.0,0.0,0.0
30/08/2022,01:25:16,0.001,0.0,0.0,0.0
30/08/2022,01:26:16,0.001,0.0,0.0,0.0
30/08/2022,01:27:16,0.000,0.0,0.0,0.0
30/08/2022,01:28:16,-0.000,0.0,0.0,0.0
30/08/2022,01:29:26,0.000,0.0,0.0,0.0
30/08/2022,01:30:15,0.001,0.0,0.0,0.0
30/08/2022,01:31:15,-0.000,0.0,0.0,0.0
30/08/2022,01:32:24,0.001,0.0,0.0,0.0
30/08/2022,01:33:16,0.000,0.0,0.0,0.0
30/08/2022,01:34:16,0.000,0.0,0.0,0.0
30/08/2022,01:35:16,0.001,0.0,0.0,0.0
30/08/2022,01:36:16,0.000,0.0,0.0,0.0
30/08/2022,01:37:15,0.001,0.0,0.0,0.0
30/08/2022,01:38:16,0.001,0.0,0.0,0.0
30/08/2022,01:39:16,0.000,0.0,0.0,0.0
30/08/2022,01:40:16,0.001,0.0,0.0,0.0
30/08/2022,01:41:16,0.000,0.0,0.0,0.0
30/08/2022,01:42:16,0.000,0.0,0.0,0.0
30/08/2022,01:43:17,0.000,0.0,0.0,0.0
30/08/2022,01:44:16,0.000,0.0,0.0,0.0
30/08/2022,01:45:15,0.000,0.0,0.0,0.0
30/08/2022,01:46:16,0.000,0.0,0.0,0.0
30/08/2022,01:47:24,0.000,0.0,0.0,0.0
30/08/2022,01:48:16,0.000,0.0,0.0,0.0
30/08/2022,01:49:16,0.000,0.0,0.0,0.0
30/08/2022,01:50:24,0.001,0.0,0.0,0.0
30/08/2022,01:51:16,0.001,0.0,0.0,0.0
30/08/2022,01:52:16,0.001,0.0,0.0,0.0
30/08/2022,01:53:24,0.001,0.0,0.0,0.0
30/08/2022,01:54:15,0.001,0.0,0.0,0.0
30/08/2022,01:55:16,0.001,0.0,0.0,0.0
30/08/2022,01:56:25,0.000,0.0,0.0,0.0
30/08/2022,01:57:16,0.000,0.0,0.0,0.0
30/08/2022,01:58:15,0.001,0.0,0.0,0.0
30/08/2022,01:59:16,0.001,0.0,0.0,0.0
30/08/2022,02:00:16,0.000,0.0,0.0,0.0
30/08/2022,02:01:16,0.002,0.0,0.0,0.0
30/08/2022,02:02:16,0.000,0.0,0.0,0.0
30/08/2022,02:03:16,-0.000,0.0,0.0,0.0
30/08/2022,02:04:16,0.000,0.0,0.0,0.0
30/08/2022,02:05:15,0.001,0.0,0.0,0.0
30/08/2022,02:06:16,0.001,0.0,0.0,0.0
30/08/2022,02:07:16,0.001,0.0,0.0,0.0
30/08/2022,02:08:15,0.002,0.0,0.0,0.0
30/08/2022,02:09:16,0.001,0.0,0.0,0.0
30/08/2022,02:10:16,0.001,0.0,0.0,0.0
30/08/2022,02:11:25,-0.000,0.0,0.0,0.0
30/08/2022,02:12:16,0.001,0.0,0.0,0.0
30/08/2022,02:13:16,0.001,0.0,0.0,0.0
30/08/2022,02:14:24,0.001,0.0,0.0,0.0
30/08/2022,02:15:16,0.001,0.0,0.0,0.0
30/08/2022,02:16:16,0.001,0.0,0.0,0.0
30/08/2022,02:17:16,0.000,0.0,0.0,0.0
30/08/2022,02:18:16,0.001,0.0,0.0,0.0
30/08/2022,02:19:16,0.001,0.0,0.0,0.0
30/08/2022,02:20:15,-0.000,0.0,0.0,0.0
30/08/2022,02:21:16,0.001,0.0,0.0,0.0
30/08/2022,02:22:16,-0.000,0.0,0.0,0.0
30/08/2022,02:23:16,0.000,0.0,0.0,0.0
30/08/2022,02:24:16,0.001,0.0,0.0,0.0
30/08/2022,02:25:16,0.001,0.0,0.0,0.0
30/08/2022,02:26:16,0.001,0.0,0.0,0.0
30/08/2022,02:27:16,0.001,0.0,0.0,0.0
30/08/2022,02:28:17,0.001,0.0,0.0,0.0
30/08/2022,02:29:16,0.000,0.0,0.0,0.0
30/08/2022,02:30:16,0.000,0.0,0.0,0.0
30/08/2022,02:31:16,0.001,0.0,0.0,0.0
30/08/2022,02:32:16,0.001,0.0,0.0,0.0
30/08/2022,02:33:15,0.001,0.0,0.0,0.0
30/08/2022,02:34:16,-0.000,0.0,0.0,0.0
30/08/2022,02:35:24,0.001,0.0,0.0,0.0
30/08/2022,02:36:16,0.000,0.0,0.0,0.0
30/08/2022,02:37:15,0.001,0.0,0.0,0.0
30/08/2022,02:38:16,-0.000,0.0,0.0,0.0
30/08/2022,02:39:16,0.001,0.0,0.0,0.0
30/08/2022,02:40:16,0.001,0.0,0.0,0.0
30/08/2022,02:41:09,0.001,0.0,0.0,0.0
30/08/2022,02:42:16,0.000,0.0,0.0,0.0
30/08/2022,02:43:16,0.000,0.0,0.0,0.0
30/08/2022,02:44:15,0.000,0.0,0.0,0.0
30/08/2022,02:45:16,0.000,0.0,0.0,0.0
30/08/2022,02:46:16,-0.000,0.0,0.0,0.0
30/08/2022,02:47:15,0.000,0.0,0.0,0.0
30/08/2022,02:48:24,0.001,0.0,0.0,0.0
30/08/2022,02:49:15,0.000,0.0,0.0,0.0
30/08/2022,02:50:16,-0.000,0.0,0.0,0.0
30/08/2022,02:51:16,-0.000,0.0,0.0,0.0
30/08/2022,02:52:16,0.000,0.0,0.0,0.0
30/08/2022,02:53:16,0.001,0.0,0.0,0.0
30/08/2022,02:54:24,0.001,0.0,0.0,0.0
30/08/2022,02:55:16,0.001,0.0,0.0,0.0
30/08/2022,02:56:16,0.001,0.0,0.0,0.0
30/08/2022,02:57:16,0.001,0.0,0.0,0.0
30/08/2022,02:58:16,0.001,0.0,0.0,0.0
30/08/2022,02:59:16,0.001,0.0,0.0,0.0
30/08/2022,03:00:16,0.001,0.0,0.0,0.0
30/08/2022,03:01:16,0.001,0.0,0.0,0.0
30/08/2022,03:02:16,-0.000,0.0,0.0,0.0
30/08/2022,03:03:16,0.001,0.0,0.0,0.0
30/08/2022,03:04:16,0.001,0.0,0.0,0.0
30/08/2022,03:05:16,0.000,0.0,0.0,0.0
30/08/2022,03:06:16,0.002,0.0,0.0,0.0
30/08/2022,03:07:29,0.001,0.0,0.0,0.0
30/08/2022,03:09:17,0.000,0.0,0.0,0.0
30/08/2022,03:10:16,0.000,0.0,0.0,0.0
30/08/2022,03:11:16,0.000,0.0,0.0,0.0
30/08/2022,03:12:25,0.001,0.0,0.0,0.0
30/08/2022,03:13:16,0.000,0.0,0.0,0.0
30/08/2022,03:14:17,0.000,0.0,0.0,0.0
30/08/2022,03:15:16,0.001,0.0,0.0,0.0
30/08/2022,03:16:16,0.000,0.0,0.0,0.0
30/08/2022,03:17:16,0.001,0.0,0.0,0.0
30/08/2022,03:18:16,0.001,0.0,0.0,0.0
30/08/2022,03:19:16,0.000,0.0,0.0,0.0
30/08/2022,03:20:16,0.000,0.0,0.0,0.0
30/08/2022,03:21:16,-0.000,0.0,0.0,0.0
30/08/2022,03:22:16,0.000,0.0,0.0,0.0
30/08/2022,03:23:16,0.000,0.0,0.0,0.0
30/08/2022,03:24:16,0.001,0.0,0.0,0.0
30/08/2022,03:25:15,0.001,0.0,0.0,0.0
30/08/2022,03:26:16,-0.001,0.0,0.0,0.0
30/08/2022,03:27:16,0.001,0.0,0.0,0.0
30/08/2022,03:28:16,0.001,0.0,0.0,0.0
30/08/2022,03:29:16,0.001,0.0,0.0,0.0
30/08/2022,03:30:16,-0.001,0.0,0.0,0.0
30/08/2022,03:31:16,0.001,0.0,0.0,0.0
30/08/2022,03:32:16,0.001,0.0,0.0,0.0
30/08/2022,03:33:16,0.001,0.0,0.0,0.0
30/08/2022,03:34:16,0.000,0.0,0.0,0.0
30/08/2022,03:35:16,0.001,0.0,0.0,0.0
30/08/2022,03:36:24,0.001,0.0,0.0,0.0
30/08/2022,03:37:16,-0.000,0.0,0.0,0.0
30/08/2022,03:38:16,0.000,0.0,0.0,0.0
30/08/2022,03:39:16,0.001,0.0,0.0,0.0
30/08/2022,03:40:16,0.001,0.0,0.0,0.0
30/08/2022,03:41:16,-0.000,0.0,0.0,0.0
30/08/2022,03:42:16,0.001,0.0,0.0,0.0
30/08/2022,03:43:23,0.002,0.0,0.0,0.0
30/08/2022,03:44:16,0.001,0.0,0.0,0.0
30/08/2022,03:45:16,0.000,0.0,0.0,0.0
30/08/2022,03:46:16,0.000,0.0,0.0,0.0
30/08/2022,03:47:16,0.001,0.0,0.0,0.0
30/08/2022,03:48:16,0.002,0.0,0.0,0.0
30/08/2022,03:49:16,0.001,0.0,0.0,0.0
30/08/2022,03:50:16,0.001,0.0,0.0,0.0
30/08/2022,03:51:16,0.001,0.0,0.0,0.0
30/08/2022,03:52:16,0.001,0.0,0.0,0.0
30/08/2022,03:53:16,0.001,0.0,0.0,0.0
30/08/2022,03:54:24,-0.000,0.0,0.0,0.0
30/08/2022,03:55:16,0.001,0.0,0.0,0.0
30/08/2022,03:56:16,0.001,0.0,0.0,0.0
30/08/2022,03:57:16,0.001,0.0,0.0,0.0
30/08/2022,03:58:17,0.000,0.0,0.0,0.0
30/08/2022,03:59:16,0.001,0.0,0.0,0.0
30/08/2022,04:00:16,0.002,0.0,0.0,0.0
30/08/2022,04:01:16,0.001,0.0,0.0,0.0
30/08/2022,04:02:16,0.001,0.0,0.0,0.0
30/08/2022,04:03:16,0.001,0.0,0.0,0.0
30/08/2022,04:04:16,0.001,0.0,0.0,0.0
30/08/2022,04:05:16,0.001,0.0,0.0,0.0
30/08/2022,04:06:16,0.000,0.0,0.0,0.0
30/08/2022,04:07:24,0.001,0.0,0.0,0.0
30/08/2022,04:08:16,-0.000,0.0,0.0,0.0
30/08/2022,04:09:16,0.001,0.0,0.0,0.0
30/08/2022,04:10:24,0.001,0.0,0.0,0.0
30/08/2022,04:11:16,0.001,0.0,0.0,0.0
30/08/2022,04:12:16,0.001,0.0,0.0,0.0
30/08/2022,04:13:16,0.001,0.0,0.0,0.0
30/08/2022,04:14:16,0.000,0.0,0.0,0.0
30/08/2022,04:15:16,0.001,0.0,0.0,0.0
30/08/2022,04:16:17,0.001,0.0,0.0,0.0
30/08/2022,04:17:16,0.002,0.0,0.0,0.0
30/08/2022,04:18:17,0.001,0.0,0.0,0.0
30/08/2022,04:19:16,0.001,0.0,0.0,0.0
30/08/2022,04:20:16,0.001,0.0,0.0,0.0
30/08/2022,04:21:16,0.001,0.0,0.0,0.0
30/08/2022,04:22:16,-0.001,0.0,0.0,0.0
30/08/2022,04:23:16,0.000,0.0,0.0,0.0
30/08/2022,04:24:16,0.001,0.0,0.0,0.0
30/08/2022,04:25:25,0.001,0.0,0.0,0.0
30/08/2022,04:26:17,0.000,0.0,0.0,0.0
30/08/2022,04:27:16,0.001,0.0,0.0,0.0
30/08/2022,04:28:16,0.001,0.0,0.0,0.0
30/08/2022,04:29:16,0.001,0.0,0.0,0.0
30/08/2022,04:30:16,0.001,0.0,0.0,0.0
30/08/2022,04:31:24,0.000,0.0,0.0,0.0
30/08/2022,04:32:15,0.001,0.0,0.0,0.0
30/08/2022,04:33:16,0.001,0.0,0.0,0.0
30/08/2022,04:34:16,0.000,0.0,0.0,0.0
30/08/2022,04:35:16,0.001,0.0,0.0,0.0
30/08/2022,04:36:16,0.000,0.0,0.0,0.0
30/08/2022,04:37:16,0.001,0.0,0.0,0.0
30/08/2022,04:38:16,0.001,0.0,0.0,0.0
30/08/2022,04:39:16,0.000,0.0,0.0,0.0
30/08/2022,04:40:16,0.000,0.0,0.0,0.0
30/08/2022,04:41:16,0.001,0.0,0.0,0.0
30/08/2022,04:42:16,0.001,0.0,0.0,0.0
30/08/2022,04:43:16,-0.000,0.0,0.0,0.0
30/08/2022,04:44:25,0.001,0.0,0.0,0.0
30/08/2022,04:45:15,0.000,0.0,0.0,0.0
30/08/2022,04:46:16,0.001,0.0,0.0,0.0
30/08/2022,04:47:17,0.002,0.0,0.0,0.0
30/08/2022,04:48:16,0.000,0.0,0.0,0.0
30/08/2022,04:49:17,0.000,0.0,0.0,0.0
30/08/2022,04:50:16,0.001,0.0,0.0,0.0
30/08/2022,04:51:16,0.000,0.0,0.0,0.0
30/08/2022,04:52:16,0.001,0.0,0.0,0.0
30/08/2022,04:53:16,0.001,0.0,0.0,0.0
30/08/2022,04:54:16,0.000,0.0,0.0,0.0
30/08/2022,04:55:16,0.000,0.0,0.0,0.0
30/08/2022,04:56:16,0.001,0.0,0.0,0.0
30/08/2022,04:57:16,0.001,0.0,0.0,0.0
30/08/2022,04:58:16,0.001,0.0,0.0,0.0
30/08/2022,04:59:17,0.001,0.0,0.0,0.0
30/08/2022,05:00:16,0.001,0.0,0.0,0.0
30/08/2022,05:01:16,0.001,0.0,0.0,0.0
30/08/2022,05:02:16,0.000,0.0,0.0,0.0
30/08/2022,05:03:16,0.000,0.0,0.0,0.0
30/08/2022,05:04:16,0.001,0.0,0.0,0.0
30/08/2022,05:05:25,0.001,0.0,0.0,0.0
30/08/2022,05:06:15,0.001,0.0,0.0,0.0
30/08/2022,05:07:16,0.001,0.0,0.0,0.0
30/08/2022,05:08:17,0.001,0.0,0.0,0.0
30/08/2022,05:09:24,0.001,0.0,0.0,0.0
30/08/2022,05:10:16,0.001,0.0,0.0,0.0
30/08/2022,05:11:16,0.001,0.0,0.0,0.0
30/08/2022,05:12:16,0.001,0.0,0.0,0.0
30/08/2022,05:13:16,0.002,0.0,0.0,0.0
30/08/2022,05:14:16,0.001,0.0,0.0,0.0
30/08/2022,05:15:25,0.001,0.0,0.0,0.0
30/08/2022,05:16:16,0.001,0.0,0.0,0.0
30/08/2022,05:17:17,0.002,0.0,0.0,0.0
30/08/2022,05:18:16,0.001,0.0,0.0,0.0
30/08/2022,05:19:16,0.002,0.0,0.0,0.0
30/08/2022,05:20:16,0.000,0.0,0.0,0.0
30/08/2022,05:21:16,0.003,0.0,0.0,0.0
30/08/2022,05:22:16,0.002,0.0,0.0,0.0
30/08/2022,05:23:16,0.002,0.0,0.0,0.0
30/08/2022,05:24:17,0.002,0.0,0.0,0.0
30/08/2022,05:25:16,0.002,0.0,0.0,0.0
30/08/2022,05:26:16,0.003,0.0,0.0,0.0
30/08/2022,05:27:17,0.003,0.0,0.0,0.0
30/08/2022,05:28:16,0.003,0.0,0.0,0.0
30/08/2022,05:29:17,0.003,0.0,0.0,0.0
30/08/2022,05:30:16,0.003,0.0,0.0,0.0
30/08/2022,05:31:16,0.003,0.0,0.0,0.0
30/08/2022,05:32:16,0.003,0.0,0.0,0.0
30/08/2022,05:33:18,0.004,0.0,0.0,0.0
30/08/2022,05:34:17,0.005,0.0,0.0,0.0
30/08/2022,05:35:17,0.004,0.0,0.0,0.0
30/08/2022,05:36:25,0.006,0.0,0.0,0.0
30/08/2022,05:37:15,0.006,0.0,0.0,0.0
30/08/2022,05:38:17,0.005,0.0,0.0,0.0
30/08/2022,05:39:25,0.007,0.0,0.0,0.0
30/08/2022,05:40:16,0.007,0.0,0.0,0.0
30/08/2022,05:41:16,0.007,0.0,0.0,0.0
30/08/2022,05:42:16,0.007,0.0,0.0,0.0
30/08/2022,05:43:25,0.007,0.0,0.001,0.001
30/08/2022,05:44:16,0.007,0.0,0.001,0.0
30/08/2022,05:45:17,0.008,0.0,0.001,0.0
30/08/2022,05:46:16,0.008,0.0,0.001,0.0
30/08/2022,05:47:16,0.008,0.0,0.001,0.0
30/08/2022,05:48:16,0.009,0.0,0.001,0.0
30/08/2022,05:49:16,0.011,0.0,0.001,0.0
30/08/2022,05:50:16,0.011,0.0,0.002,0.001
30/08/2022,05:51:16,0.012,0.0,0.002,0.0
30/08/2022,05:52:17,0.012,0.0,0.002,0.0
30/08/2022,05:53:16,0.012,0.0,0.002,0.0
30/08/2022,05:54:16,0.013,0.0,0.002,0.0
30/08/2022,05:55:16,0.013,0.0,0.003,0.001
30/08/2022,05:56:16,0.013,0.0,0.003,0.0
30/08/2022,05:57:17,0.012,0.0,0.003,0.0
30/08/2022,05:58:24,0.012,0.0,0.003,0.0
30/08/2022,05:59:16,0.010,0.0,0.003,0.0
30/08/2022,06:00:17,0.013,0.0,0.004,0.001
30/08/2022,06:01:16,0.013,0.0,0.004,0.0
30/08/2022,06:02:16,0.014,0.0,0.004,0.0
30/08/2022,06:03:18,0.015,0.0,0.004,0.0
30/08/2022,06:04:25,0.016,0.0,0.005,0.001
30/08/2022,06:05:16,0.017,0.0,0.005,0.0
30/08/2022,06:06:16,0.019,0.0,0.005,0.0
30/08/2022,06:07:24,0.020,0.0,0.005,0.0
30/08/2022,06:08:16,0.021,0.0,0.006,0.001
30/08/2022,06:09:16,0.023,0.0,0.006,0.0
30/08/2022,06:10:17,0.025,0.0,0.007,0.001
30/08/2022,06:11:16,0.026,0.0,0.007,0.0
30/08/2022,06:12:16,0.027,0.0,0.007,0.0
30/08/2022,06:13:16,0.028,0.0,0.008,0.001
30/08/2022,06:14:16,0.028,0.0,0.008,0.0
30/08/2022,06:15:17,0.030,0.0,0.009,0.001
30/08/2022,06:16:16,0.032,0.0,0.009,0.0
30/08/2022,06:17:16,0.033,0.0,0.01,0.001
30/08/2022,06:18:16,0.033,0.0,0.01,0.0
30/08/2022,06:19:17,0.034,0.0,0.011,0.001
30/08/2022,06:20:16,0.036,0.0,0.012,0.001
30/08/2022,06:21:17,0.034,0.0,0.012,0.0
30/08/2022,06:22:25,0.033,0.0,0.013,0.001
30/08/2022,06:23:25,0.031,0.0,0.013,0.0
30/08/2022,06:24:17,0.031,0.0,0.014,0.001
30/08/2022,06:25:25,0.032,0.0,0.014,0.0
30/08/2022,06:26:17,0.033,0.0,0.015,0.001
30/08/2022,06:27:16,0.036,0.0,0.015,0.0
30/08/2022,06:28:33,0.039,0.0,0.016,0.001
30/08/2022,06:30:17,0.043,0.0,0.017,0.001
30/08/2022,06:31:16,0.044,0.0,0.018,0.001
30/08/2022,06:32:17,0.048,0.0,0.019,0.001
30/08/2022,06:33:16,0.050,0.0,0.02,0.001
30/08/2022,06:34:16,0.052,0.0,0.021,0.001
30/08/2022,06:35:16,0.054,0.0,0.022,0.001
30/08/2022,06:36:16,0.056,0.0,0.022,0.0
30/08/2022,06:37:17,0.058,0.0,0.023,0.001
30/08/2022,06:38:25,0.060,0.0,0.025,0.002
30/08/2022,06:39:16,0.061,0.0,0.025,0.0
30/08/2022,06:40:17,0.062,0.0,0.026,0.001
30/08/2022,06:41:17,0.065,0.0,0.027,0.001
30/08/2022,06:42:16,0.067,0.0,0.029,0.002
30/08/2022,06:43:17,0.067,0.0,0.03,0.001
30/08/2022,06:44:16,0.068,0.0,0.031,0.001
30/08/2022,06:45:16,0.071,0.0,0.032,0.001
30/08/2022,06:46:16,0.072,0.0,0.033,0.001
30/08/2022,06:47:16,0.072,0.0,0.034,0.001
30/08/2022,06:48:16,0.073,0.0,0.036,0.002
30/08/2022,06:49:17,0.073,0.0,0.037,0.001
30/08/2022,06:50:17,0.075,0.0,0.038,0.001
30/08/2022,06:51:24,0.079,0.0,0.04,0.002
30/08/2022,06:52:16,0.082,0.0,0.041,0.001
30/08/2022,06:53:24,0.087,0.0,0.042,0.001
30/08/2022,06:54:16,0.089,0.0,0.044,0.002
30/08/2022,06:55:17,0.092,0.0,0.045,0.001
30/08/2022,06:56:16,0.095,0.0,0.047,0.002
30/08/2022,06:57:17,0.096,0.0,0.048,0.001
30/08/2022,06:58:17,0.097,0.0,0.05,0.002
30/08/2022,06:59:16,0.096,0.0,0.051,0.001
30/08/2022,07:00:17,0.095,0.0,0.053,0.002
30/08/2022,07:01:16,0.094,0.0,0.055,0.002
30/08/2022,07:02:16,0.092,0.0,0.056,0.001
30/08/2022,07:03:17,0.088,0.0,0.058,0.002
30/08/2022,07:04:16,0.085,0.0,0.059,0.001
30/08/2022,07:05:16,0.086,0.0,0.06,0.001
30/08/2022,07:06:16,0.087,0.0,0.062,0.002
30/08/2022,07:07:17,0.089,0.0,0.063,0.001
30/08/2022,07:08:17,0.087,0.0,0.065,0.002
30/08/2022,07:09:16,0.084,0.0,0.066,0.001
30/08/2022,07:10:16,0.084,0.0,0.068,0.002
30/08/2022,07:11:16,0.091,0.0,0.069,0.001
30/08/2022,07:12:16,0.098,0.0,0.071,0.002
30/08/2022,07:13:17,0.097,0.0,0.072,0.001
30/08/2022,07:14:16,0.095,0.0,0.074,0.002
30/08/2022,07:15:25,0.090,0.0,0.076,0.002
30/08/2022,07:16:17,0.091,0.0,0.077,0.001
30/08/2022,07:17:16,0.102,0.0,0.079,0.002
30/08/2022,07:18:25,0.120,0.0,0.081,0.002
30/08/2022,07:19:17,0.132,0.0,0.082,0.001
30/08/2022,07:20:16,0.143,0.0,0.085,0.003
30/08/2022,07:21:16,0.150,0.0,0.087,0.002
30/08/2022,07:22:17,0.155,0.0,0.09,0.003
30/08/2022,07:23:16,0.155,0.0,0.092,0.002
30/08/2022,07:24:16,0.155,0.0,0.095,0.003
30/08/2022,07:25:17,0.158,0.0,0.098,0.003
30/08/2022,07:26:16,0.168,0.0,0.1,0.002
30/08/2022,07:27:17,0.171,0.0,0.103,0.003
30/08/2022,07:28:16,0.169,0.0,0.106,0.003
30/08/2022,07:29:16,0.177,0.0,0.109,0.003
30/08/2022,07:30:16,0.185,0.0,0.112,0.003
30/08/2022,07:31:16,0.195,0.0,0.115,0.003
30/08/2022,07:32:17,0.200,0.0,0.118,0.003
30/08/2022,07:33:16,0.205,0.0,0.122,0.004
30/08/2022,07:34:25,0.210,0.0,0.126,0.004
30/08/2022,07:35:16,0.213,0.0,0.129,0.003
30/08/2022,07:36:25,0.217,0.0,0.133,0.004
30/08/2022,07:37:18,0.219,1.0,0.136,0.003
30/08/2022,07:38:17,0.219,1.0,0.139,0.003
30/08/2022,07:39:16,0.221,1.0,0.143,0.004
30/08/2022,07:40:16,0.228,1.0,0.147,0.004
30/08/2022,07:41:17,0.232,1.0,0.151,0.004
30/08/2022,07:42:16,0.236,1.0,0.155,0.004
30/08/2022,07:43:17,0.241,1.0,0.159,0.004
30/08/2022,07:44:16,0.245,1.0,0.163,0.004
30/08/2022,07:45:17,0.247,1.0,0.167,0.004
30/08/2022,07:46:16,0.234,1.0,0.171,0.004
30/08/2022,07:47:16,0.256,1.0,0.175,0.004
30/08/2022,07:48:16,0.245,1.0,0.179,0.004
30/08/2022,07:49:25,0.265,1.0,0.184,0.005
30/08/2022,07:50:18,0.274,1.0,0.188,0.004
30/08/2022,07:51:17,0.282,1.0,0.192,0.004
30/08/2022,07:52:25,0.291,1.0,0.198,0.006
30/08/2022,07:53:16,0.294,1.0,0.202,0.004
30/08/2022,07:54:17,0.283,1.0,0.207,0.005
30/08/2022,07:55:16,0.268,1.0,0.211,0.004
30/08/2022,07:56:17,0.271,1.0,0.216,0.005
30/08/2022,07:57:16,0.299,1.0,0.221,0.005
30/08/2022,07:58:17,0.303,1.0,0.226,0.005
30/08/2022,07:59:16,0.312,1.0,0.231,0.005
30/08/2022,08:00:17,0.315,1.0,0.236,0.005
30/08/2022,08:01:16,0.320,1.0,0.241,0.005
30/08/2022,08:02:16,0.314,1.0,0.247,0.006
30/08/2022,08:03:17,0.292,1.0,0.252,0.005
30/08/2022,08:04:16,0.297,1.0,0.257,0.005
30/08/2022,08:05:17,0.292,1.0,0.262,0.005
30/08/2022,08:06:16,0.292,1.0,0.267,0.005
30/08/2022,08:07:16,0.293,1.0,0.271,0.004
30/08/2022,08:08:16,0.291,1.0,0.276,0.005
30/08/2022,08:09:17,0.297,1.0,0.281,0.005
30/08/2022,08:10:17,0.293,1.0,0.286,0.005
30/08/2022,08:11:16,0.293,1.0,0.291,0.005
30/08/2022,08:12:16,0.294,1.0,0.296,0.005
30/08/2022,08:13:25,0.293,1.0,0.301,0.005
30/08/2022,08:14:16,0.296,1.0,0.306,0.005
30/08/2022,08:15:16,0.308,1.0,0.311,0.005
30/08/2022,08:16:25,0.309,1.0,0.317,0.006
30/08/2022,08:17:25,0.312,1.0,0.322,0.005
30/08/2022,08:18:16,0.316,1.0,0.326,0.004
30/08/2022,08:19:17,0.318,1.0,0.332,0.006
30/08/2022,08:22:18,0.324,1.0,0.348,0.016
30/08/2022,08:23:17,0.330,1.0,0.353,0.005
30/08/2022,08:24:16,0.335,1.0,0.359,0.006
30/08/2022,08:25:16,0.342,1.0,0.364,0.005
30/08/2022,08:26:16,0.343,1.0,0.37,0.006
30/08/2022,08:27:16,0.344,1.0,0.376,0.006
30/08/2022,08:28:16,0.348,1.0,0.381,0.005
30/08/2022,08:29:16,0.355,1.0,0.387,0.006
30/08/2022,08:30:16,0.365,1.0,0.393,0.006
30/08/2022,08:31:16,0.373,1.0,0.399,0.006
30/08/2022,08:32:16,0.381,1.0,0.406,0.007
30/08/2022,08:33:17,0.383,1.0,0.413,0.007
30/08/2022,08:34:16,0.388,1.0,0.419,0.006
30/08/2022,08:35:16,0.393,1.0,0.425,0.006
30/08/2022,08:36:17,0.400,1.0,0.432,0.007
30/08/2022,08:37:16,0.407,1.0,0.439,0.007
30/08/2022,08:38:17,0.419,1.0,0.446,0.007
30/08/2022,08:39:16,0.439,1.0,0.453,0.007
30/08/2022,08:50:24,0.533,1.0,0.555,0.102
30/08/2022,08:51:17,0.496,1.0,0.562,0.007
30/08/2022,08:52:16,0.539,1.0,0.571,0.009
30/08/2022,08:53:16,0.495,1.0,0.58,0.009
30/08/2022,08:54:16,0.503,1.0,0.588,0.008
30/08/2022,08:55:16,0.634,1.0,0.597,0.009
30/08/2022,08:56:16,0.553,1.0,0.607,0.01
30/08/2022,08:57:16,0.678,2.0,0.617,0.01
30/08/2022,08:58:17,0.621,1.0,0.628,0.011
30/08/2022,09:11:26,0.719,2.0,0.756,0.128
30/08/2022,09:12:15,0.674,2.0,0.766,0.01
30/08/2022,09:13:17,0.640,1.0,0.776,0.01
30/08/2022,09:14:18,0.652,2.0,0.788,0.012
30/08/2022,09:15:17,0.621,1.0,0.798,0.01
30/08/2022,09:16:16,0.816,2.0,0.809,0.011
30/08/2022,09:17:25,0.637,1.0,0.823,0.014
30/08/2022,09:18:17,0.605,1.0,0.832,0.009
30/08/2022,09:19:17,0.585,1.0,0.842,0.01
30/08/2022,09:20:18,0.580,1.0,0.852,0.01
30/08/2022,09:21:17,0.581,1.0,0.861,0.009
30/08/2022,09:22:17,0.582,1.0,0.871,0.01
30/08/2022,09:23:16,0.609,1.0,0.881,0.01
30/08/2022,10:01:42,1.159,3.0,1.378,0.497
30/08/2022,10:18:29,0.817,2.0,1.626,0.248
30/08/2022,10:20:17,0.847,2.0,1.653,0.027
30/08/2022,10:21:17,0.851,2.0,1.667,0.014
30/08/2022,10:22:16,0.883,2.0,1.682,0.015
30/08/2022,10:23:16,1.010,2.0,1.7,0.018
30/08/2022,10:24:17,0.933,2.0,1.716,0.016
30/08/2022,10:25:16,0.923,2.0,1.732,0.016
30/08/2022,10:26:17,0.942,2.0,1.747,0.015
30/08/2022,10:27:17,0.949,2.0,1.767,0.02
30/08/2022,10:28:17,0.922,2.0,1.782,0.015
30/08/2022,10:29:16,1.115,3.0,1.799,0.017
30/08/2022,10:30:25,1.300,3.0,1.821,0.022
30/08/2022,10:31:16,1.176,3.0,1.838,0.017
30/08/2022,10:32:17,1.082,2.0,1.856,0.018
30/08/2022,10:33:17,0.961,2.0,1.873,0.017
30/08/2022,10:34:17,1.163,3.0,1.89,0.017
30/08/2022,10:35:16,1.007,2.0,1.909,0.019
30/08/2022,10:36:25,0.928,2.0,1.926,0.017
30/08/2022,10:37:16,0.901,2.0,1.94,0.014
30/08/2022,10:38:33,0.979,2.0,1.959,0.019
30/08/2022,10:40:17,0.996,2.0,1.987,0.028
30/08/2022,10:41:17,1.014,2.0,2.003,0.016
30/08/2022,10:42:17,1.324,3.0,2.022,0.019
30/08/2022,10:43:17,1.367,3.0,2.044,0.022
30/08/2022,10:44:17,1.094,3.0,2.066,0.022
30/08/2022,10:45:17,1.450,3.0,2.087,0.021
30/08/2022,10:46:16,1.296,3.0,2.111,0.024
30/08/2022,10:47:17,1.395,3.0,2.134,0.023
30/08/2022,10:48:17,1.074,2.0,2.152,0.018
30/08/2022,10:49:17,1.260,3.0,2.173,0.021
30/08/2022,10:50:17,1.054,2.0,2.192,0.019
30/08/2022,10:51:17,0.988,2.0,2.209,0.017
30/08/2022,10:52:17,1.007,2.0,2.225,0.016
30/08/2022,10:53:18,1.069,2.0,2.243,0.018
30/08/2022,11:11:17,1.627,4.0,2.597,0.354
30/08/2022,11:11:59,1.194,3.0,2.615,0.018
30/08/2022,11:29:14,1.028,2.0,3.003,0.388
30/08/2022,11:31:20,1.093,3.0,3.04,0.037
30/08/2022,11:32:19,1.065,2.0,3.057,0.017
30/08/2022,11:33:19,1.345,3.0,3.077,0.02
30/08/2022,11:34:16,0.959,2.0,3.095,0.018
30/08/2022,11:35:25,0.971,2.0,3.114,0.019
30/08/2022,11:36:19,1.007,2.0,3.128,0.014
30/08/2022,11:37:17,1.383,3.0,3.147,0.019
30/08/2022,11:38:17,1.148,3.0,3.168,0.021
30/08/2022,11:39:18,1.076,2.0,3.187,0.019
30/08/2022,11:40:17,1.102,3.0,3.204,0.017
30/08/2022,11:41:17,1.074,2.0,3.223,0.019
30/08/2022,11:42:19,0.933,2.0,3.242,0.019
30/08/2022,11:43:19,0.802,2.0,3.256,0.014
30/08/2022,11:44:19,0.813,2.0,3.269,0.013
30/08/2022,11:45:32,0.829,2.0,3.286,0.017
30/08/2022,11:47:20,0.933,2.0,3.312,0.026
30/08/2022,11:48:19,0.931,2.0,3.328,0.016
30/08/2022,11:49:18,0.831,2.0,3.342,0.014
30/08/2022,11:50:27,0.778,2.0,3.357,0.015
30/08/2022,11:52:19,0.869,2.0,3.383,0.026
30/08/2022,11:53:19,0.898,2.0,3.398,0.015
30/08/2022,11:54:19,0.899,2.0,3.413,0.015
30/08/2022,11:55:19,0.892,2.0,3.428,0.015
30/08/2022,11:56:19,0.859,2.0,3.442,0.014
30/08/2022,11:57:19,0.818,2.0,3.456,0.014
30/08/2022,11:58:27,0.800,2.0,3.472,0.016
30/08/2022,12:00:20,0.812,2.0,3.497,0.025
30/08/2022,12:01:18,0.831,2.0,3.51,0.013
30/08/2022,12:02:19,0.830,2.0,3.524,0.014
30/08/2022,12:03:19,0.803,2.0,3.538,0.014
30/08/2022,12:04:19,0.781,2.0,3.551,0.013
30/08/2022,12:05:19,0.789,2.0,3.564,0.013
30/08/2022,12:06:19,0.791,2.0,3.577,0.013
30/08/2022,12:07:19,0.799,2.0,3.591,0.014
30/08/2022,12:08:19,0.822,2.0,3.604,0.013
30/08/2022,12:09:19,0.842,2.0,3.618,0.014
30/08/2022,12:10:19,0.852,2.0,3.632,0.014
30/08/2022,12:11:27,0.831,2.0,3.648,0.016
30/08/2022,12:13:19,0.742,2.0,3.672,0.024
30/08/2022,12:14:19,0.705,2.0,3.684,0.012
30/08/2022,12:15:19,0.685,2.0,3.696,0.012